{"data":{"norad_id":65798,"intl_designator":"2025-218H","name":"STARLINK-35414","alt_names":[],"object_type":"PAYLOAD","status":"ACTIVE","operator":null,"country":"US","launch_date":"2025-09-26","launch_site_code":"AFWTR","launch_vehicle":null,"mission":null,"orbit_class":"UNKNOWN","rcs_meters":null,"size_class":null,"mass_kg":null,"dimensions":null,"purposes":["comms"],"wikipedia_slug":null,"has_3d_model":false,"image_url":null,"decayed_at":null,"tle_current":{"epoch":"2026-09-20T14:28:58.329696Z","epoch_age_seconds":97137,"freshness":"FRESH","line1":"1 65798U 25218H   26263.60345289  .00014890  00000+0  46255-3 0  9995","line2":"2 65798  97.2822 121.0365 0002086  89.0198 271.1284 15.33450249 54354","mean_motion":15.33450249,"eccentricity":0.0002086,"inclination_deg":97.2822,"raan_deg":121.0365,"arg_perigee_deg":89.0198,"mean_anomaly_deg":271.1284,"bstar":0.00046255,"rev_number":5435,"period_min":93.905883215909,"perigee_km":464.09996876504,"apogee_km":466.9551456183,"semimajor_km":6843.6645571917,"source":"CELESTRAK","updated_at":"2026-09-21T09:00:35.714718Z"}}}